Voltar ao catálogo

STARLINK-31357

AtivoComunicaçõesVLEO
NORAD 59502·PAYLOAD·🇺🇸 United States

Lançado Apr 13, 2024 de Cape Canaveral Space Force Station

Loading…

Próximas Passagens (próximas 24 horas)

TLE

AtualizadoSource: CelesTrak SupGP

Época: Sep 15, 2026, 02:18 UTC

1 59502C 24071U   26258.09631944  .00027266  00000+0  98744-3 0  2589
2 59502  43.0041 350.4207 0001670 262.7309 284.5473 15.27569100    19

Acompanhe STARLINK-31357 em tempo real com AllMySat

Download on the App Store